DateTimeUTC,F1_A11,F1_S11,BsB_S11,BsG_S11,BsR_S11,BbsB_S11,BbsG_S11,BbsR_S11,BaB_A11,BaG_A11,BaR_A11,Tu_S11,T_S11,Uu_S11,U_S11,P_S11,T1_A11
2021-08-19T01:00:00Z,00000200,20000000,,,,,,,0000.02,0000.27,0000.29,20.0,26.5,15.8,10.7,0677.3,31.1
2021-08-19T01:01:00Z,00000200,20000000,,,,,,,0000.02,-000.13,-000.11,20.0,26.5,15.8,10.7,0677.3,31.1
2021-08-19T01:02:00Z,00000200,20000000,,,,,,,0000.10,0000.20,-000.45,20.0,26.5,15.9,10.7,0677.3,31.1
2021-08-19T01:03:00Z,00000200,60000000,,,,,,,-000.06,0000.10,0000.68,20.0,26.6,15.9,10.7,0677.3,31.1
2021-08-19T01:04:00Z,00000200,40000000,0000.45,0000.36,0000.07,0000.10,0000.13,-000.12,0000.15,-000.09,-000.14,20.1,26.4,16.0,11.0,0678.2,31.1
2021-08-19T01:05:00Z,00000200,00000000,0000.37,0000.36,0000.07,0000.41,0000.27,0000.14,0000.20,-000.36,0000.26,20.2,26.4,16.1,11.0,0678.2,31.1
2021-08-19T01:06:00Z,00000200,00000000,0000.27,0000.37,0000.28,0000.31,0000.06,0000.31,0000.29,0000.43,-000.12,20.2,26.4,16.2,11.1,0678.2,31.1
2021-08-19T01:07:00Z,00000200,00000000,-000.25,0000.62,-000.01,0000.38,-000.06,-000.19,-000.50,0000.06,-000.13,20.2,26.3,16.4,11.3,0678.2,31.1
2021-08-19T01:08:00Z,00000200,00000000,0000.40,0000.40,0000.33,0000.22,0000.18,-000.17,0000.36,0000.10,0000.15,20.2,26.3,16.4,11.3,0678.2,31.1
2021-08-19T01:09:00Z,00000200,00000000,0000.74,0000.17,-000.13,-000.07,0000.12,-000.16,-000.12,-000.06,0000.40,20.2,26.3,16.4,11.3,0678.2,31.1
2021-08-19T01:10:00Z,00000200,00000000,0000.03,0000.43,0000.36,0000.13,-000.13,0000.49,0000.30,0000.22,-000.49,20.2,26.3,16.5,11.4,0678.2,31.1
2021-08-19T01:11:00Z,00000200,00000000,0000.49,0000.12,0000.50,0000.22,-000.08,0000.51,0000.03,0000.09,0000.06,20.1,26.3,16.4,11.4,0678.2,31.1
2021-08-19T01:12:00Z,00000200,00000000,-000.26,0000.13,0000.25,0000.14,-000.10,0000.22,0000.23,0000.03,0000.33,20.1,26.3,16.5,11.4,0678.2,31.1
2021-08-19T01:13:00Z,00000200,00000000,-000.79,0000.16,0000.32,0000.04,-000.23,0000.07,0000.23,-000.06,0000.23,20.1,26.3,16.5,11.4,0678.2,31.1
2021-08-19T01:14:00Z,00000200,00000000,-000.24,0000.35,0000.03,-000.12,-000.07,-000.01,0000.04,0000.59,-000.18,20.1,26.3,16.5,11.4,0678.2,31.1
2021-08-19T01:15:00Z,00000200,00000000,0001.02,0000.45,0000.10,0000.51,0000.01,0000.15,-000.13,-000.26,0000.15,20.1,26.3,16.6,11.4,0678.2,31.1
2021-08-19T01:16:00Z,00000200,00000000,0000.10,0000.22,0000.02,0000.40,-000.21,0000.06,-000.11,0000.07,0000.29,20.1,26.3,16.6,11.5,0678.2,31.1
2021-08-19T01:17:00Z,00000200,00000000,0000.45,0000.26,0000.22,0000.63,-000.09,0000.41,0000.45,0000.13,-000.31,20.1,26.3,16.7,11.5,0678.2,31.1
2021-08-19T01:18:00Z,00000200,00000000,0000.09,0000.17,-000.08,0000.36,0000.06,0000.36,-000.05,-000.07,0000.13,20.1,26.3,16.7,11.5,0678.2,31.1
2021-08-19T01:19:00Z,00000200,00000000,0000.44,0000.15,0000.18,-000.09,-000.10,0000.30,0000.07,0000.03,-000.25,20.1,26.3,16.7,11.5,0678.2,31.1
2021-08-19T01:20:00Z,00000200,00000000,-000.20,0000.19,0000.37,0000.55,0000.05,0000.40,-000.22,0000.01,0000.24,20.1,26.3,16.6,11.5,0678.2,31.1
2021-08-19T01:21:00Z,00000200,00000000,0000.03,0000.20,0000.18,-000.55,-000.16,0000.04,0000.26,0000.32,0000.08,20.1,26.3,16.8,11.6,0678.2,31.1
2021-08-19T01:22:00Z,00000200,00000000,0000.53,0000.69,0000.21,0000.11,0000.24,0000.33,0000.28,-000.08,0000.07,20.1,26.3,16.8,11.6,0678.1,31.1
2021-08-19T01:23:00Z,00000200,00000000,0000.36,0000.27,0000.41,-000.71,0000.19,0000.20,0000.02,0000.07,0000.10,20.1,26.2,16.8,11.6,0678.1,31.1
2021-08-19T01:24:00Z,00000200,00000000,-000.20,0000.46,0000.20,-000.09,-000.23,0000.02,-000.01,0000.11,-000.20,20.1,26.2,16.8,11.6,0678.1,31.1
2021-08-19T01:25:00Z,00000200,00000000,0000.18,0000.13,-000.45,-000.02,-000.12,-000.28,0000.14,-000.08,0000.28,20.1,26.2,16.8,11.6,0678.1,31.1
2021-08-19T01:26:00Z,00000200,00000000,0000.09,0000.31,0000.39,0000.18,0000.01,0000.23,0000.28,0000.63,0000.04,20.1,26.3,16.9,11.7,0678.1,31.1
2021-08-19T01:27:00Z,00000200,00000000,0000.71,0000.36,0000.51,-000.68,0000.26,0000.30,-000.11,-000.17,0000.14,20.1,26.2,16.8,11.6,0678.1,31.1
2021-08-19T01:28:00Z,00000200,00000000,0000.01,0000.14,0000.40,0000.60,-000.07,0000.13,0000.30,0000.16,0000.19,20.2,26.2,16.9,11.7,0678.1,31.1
2021-08-19T01:29:00Z,00000200,00000000,-000.05,0000.30,0000.23,-000.65,0000.08,0000.14,-000.37,-000.28,-000.36,20.1,26.2,16.8,11.6,0678.1,31.1
2021-08-19T01:30:00Z,00000200,00000000,0000.11,0000.32,0000.16,0000.66,0000.31,-000.14,0000.28,-000.18,0000.12,20.1,26.2,16.8,11.6,0678.1,31.1
2021-08-19T01:31:00Z,00000200,00000000,0000.51,0000.39,0000.21,0000.52,0000.18,-000.07,0000.08,0000.37,0000.38,20.2,26.2,16.8,11.7,0678.1,31.1
2021-08-19T01:32:00Z,00000200,00000000,-000.38,0000.34,0000.00,0000.62,0000.16,0000.16,-000.18,0000.26,-000.19,20.2,26.2,16.8,11.6,0678.1,31.1
2021-08-19T01:33:00Z,00000200,00000000,-000.34,0000.16,0000.12,-000.40,-000.05,0000.02,0000.21,-000.31,0000.30,20.2,26.2,16.8,11.6,0678.1,31.1
2021-08-19T01:34:00Z,00000200,00000000,0000.91,0000.47,0000.31,0000.17,-000.48,-000.04,0000.18,-000.01,-000.07,20.1,26.2,16.7,11.6,0678.1,31.1
2021-08-19T01:35:00Z,00000200,00000000,0000.75,0000.74,0000.49,-000.24,0000.23,0000.15,-000.26,0000.29,-000.14,20.1,26.2,16.7,11.6,0678.1,31.1
2021-08-19T01:36:00Z,00000200,00000000,-000.14,0000.10,0000.15,-000.03,-000.18,-000.04,0000.16,0000.15,0000.19,20.2,26.2,16.5,11.5,0678.1,31.1
2021-08-19T01:37:00Z,00000200,00000000,0000.13,0000.26,0000.14,0000.78,0000.53,0000.21,-000.05,-000.38,-000.27,20.1,26.2,16.7,11.6,0678.1,31.1
2021-08-19T01:38:00Z,00000200,00000000,0000.51,0000.55,0000.16,0000.41,0000.02,-000.08,0000.15,0000.60,0000.13,20.1,26.2,16.7,11.6,0678.1,31.1
2021-08-19T01:39:00Z,00000200,00000000,0000.23,0000.20,0000.25,-000.32,0000.01,0000.09,0000.27,-000.20,-000.03,20.1,26.2,16.6,11.5,0678.1,31.1
2021-08-19T01:40:00Z,00000200,00000000,0000.03,0000.04,0000.21,0000.49,-000.01,-000.10,-000.12,-000.18,0000.29,20.1,26.2,16.6,11.5,0678.0,31.1
2021-08-19T01:41:00Z,00000200,00000000,0000.02,0000.20,0000.19,0000.31,0000.02,-000.01,0000.28,0000.39,-000.08,20.1,26.2,16.5,11.4,0678.0,31.1
2021-08-19T01:42:00Z,00000200,00000000,-000.71,0000.07,0000.85,0000.02,0000.12,-000.01,-000.13,0000.15,0000.09,20.1,26.2,16.6,11.5,0678.0,31.1
2021-08-19T01:43:00Z,00000200,00000000,-000.28,0000.13,0000.09,-000.42,-000.15,-000.02,-000.00,-000.15,-000.10,20.1,26.2,16.6,11.5,0678.0,31.1
2021-08-19T01:44:00Z,00000200,00000000,-000.01,0000.13,0000.27,0000.34,0000.39,0000.09,0000.15,-000.15,0000.22,20.1,26.2,16.5,11.4,0678.0,31.1
2021-08-19T01:45:00Z,00000200,00000000,0000.15,-000.02,0000.27,0000.14,0000.12,0000.25,0000.02,-000.16,-000.26,20.1,26.2,16.6,11.5,0678.0,31.1
2021-08-19T01:46:00Z,00000200,00000000,0000.64,-000.01,0000.43,0000.30,-000.10,0000.18,-000.07,0000.36,0000.08,20.1,26.2,16.4,11.4,0678.0,31.1
2021-08-19T01:47:00Z,00000200,00000000,-000.10,0000.49,0000.43,0000.20,-000.23,0000.10,-000.03,-000.16,0000.15,20.1,26.2,16.4,11.4,0678.0,31.1
2021-08-19T01:48:00Z,00000200,00000000,-000.32,-000.02,0000.14,-000.17,0000.04,-000.09,0000.13,0000.24,0000.26,20.1,26.2,16.3,11.3,0678.0,31.1
2021-08-19T01:49:00Z,00000200,00000000,-000.49,0000.11,0000.27,-000.22,-000.05,-000.11,0000.02,-000.08,-000.00,20.1,26.2,16.4,11.4,0678.0,31.1
2021-08-19T01:50:00Z,00000200,00000000,-000.52,0000.31,0000.38,0000.21,0000.22,0000.21,0000.29,0000.21,-000.06,20.1,26.2,16.4,11.4,0678.0,31.1
2021-08-19T01:51:00Z,00000200,00000000,0000.54,0000.10,0000.17,0000.43,0000.03,-000.10,-000.28,-000.01,0000.01,20.1,26.2,16.3,11.4,0678.0,31.1
2021-08-19T01:52:00Z,00000200,00000000,0000.33,-000.07,0000.01,0000.25,0000.09,0000.31,0000.22,0000.06,0000.16,20.1,26.2,16.4,11.4,0678.0,31.1
2021-08-19T01:53:00Z,00000200,00000000,0000.19,0000.40,-000.16,0000.58,-000.03,0000.04,0000.12,0000.01,-000.15,20.1,26.2,16.3,11.4,0678.0,31.1
2021-08-19T01:54:00Z,00000200,00000000,0000.50,0000.35,0000.27,0000.32,-000.19,0000.09,-000.12,0000.04,0000.02,20.1,26.2,16.4,11.4,0678.0,31.1
2021-08-19T01:55:00Z,00000200,00000000,-000.37,-000.11,-000.04,-000.19,0000.04,0000.15,-000.00,0000.12,0000.04,20.1,26.2,16.3,11.3,0678.0,31.1
2021-08-19T01:56:00Z,00000200,00000000,-000.12,-000.28,0000.09,0000.17,0000.02,0000.27,-000.06,-000.38,-000.12,20.1,26.2,16.3,11.4,0678.0,31.1
2021-08-19T01:57:00Z,00000200,40000000,,,,,,,0000.21,0000.36,0000.23,20.2,26.2,15.7,10.9,0677.9,31.1
2021-08-19T01:58:00Z,00000200,60000000,,,,,,,-000.30,-000.04,-000.33,19.9,26.3,16.4,11.1,0677.0,31.1
2021-08-19T01:59:00Z,00000200,20000000,,,,,,,0000.05,-000.51,0000.13,19.9,26.4,16.4,11.1,0677.0,31.1
